Details for FedEx at KMEM




Go Back


Latest METAR
Local Time

KMEM 150454Z 15005KT 10SM OVC130 28/22 A3001 RMK AO2 SLP157 T02780217
15/08/2018, 00:19:49

Description
Results
FedEx Logo
Number of Pilots based at KMEM
0 Pilots Based here
Number of FedEx Flights Departed from KMEM
0 Flights Departed
Number of FedEx Flights Arrived at KMEM
0 Flights Arrived
Number of FedEx Schedules Departing from KMEM
1045 Schedules
Number of FedEx Schedules Arriving at KMEM
1053 Schedules
Number of FedEx Schedules Departing from KMEM availible today
250 Schedules Today
Number of FedEx Schedules Arriving at KMEM availible today
256 Schedules Today
Average Landing Rate at KMEM
-202 fpm
FedEx Average Landing Rate at KMEM
0 fpm
Total Fuel Purchased at KMEM by FedEx
0.00 kgs / 0.00 lbs

Pilots Based at KMEM


Pilot ID
Pilot Name
Pilot Rank
No. of Flights
No. of Flying Hours
There are no pilots assigned to this hub!   Will you be the first?
Content